Starlink 30611

operational
NORAD ID: 58108 Int'l Des: 2023-161 Owner: SPXS Country: US Constellation: starlink
LEOCIRCULAR

About Starlink 30611

Description loading...

Live Position

Loading 3D Globe...

Upcoming Passes

Altitude History

Altitude vs Time

uPlot chart will show altitude changes over time

Two-Line Element Set

1 58108U 23161M 25301.46012655 .00000799 00000-0 39114-4 0 9992
2 58108 53.1619 46.9482 0001019 86.6875 273.4242 15.30191074114352
Epoch: Oct 28, 2025 • Age: 28 hours

Current Status

Altitude 475.6 km
Velocity 7.63 km/s
Sub-Earth Point 4.57°N, 137.44°E
Launch Date Oct 21, 2023
Age 2 years
Type internet

Technical Details

Classification Payload
Mass 730.00 kg
Dry Mass 700.00 kg
Total Mass 730.00 kg
Length 0.30 m
Diameter 4.10 m
Span 29.00 m
Shape Box + pan
Manufacturer SPXS
Bus Type Starlink V2M
Phase Status In Orbit
Owner/State SPXS/US

Large Constellations

Loading constellations...